TimeMDT,TemperatureF,Dew PointF,Humidity,Sea Level PressureIn,VisibilityMPH,Wind Direction,Wind SpeedMPH,Gust SpeedMPH,PrecipitationIn,Events,Conditions,WindDirDegrees,DateUTC
5:00 AM,17.6,14.0,86,29.51,15.0,NW,6.9,-,N/A,,Partly Cloudy,310,2012-03-18 11:00:00
6:00 AM,23,15,62,29.52,15,South,5.8,,,,Partly Cloudy,170,2012-03-18 12:00:00
6:00 AM,23.0,15.8,74,29.52,15.0,South,5.8,-,N/A,,Partly Cloudy,180,2012-03-18 12:00:00
7:00 AM,21.2,15.8,80,29.55,15.0,South,5.8,-,N/A,,Scattered Clouds,180,2012-03-18 13:00:00
8:00 AM,26.6,17.6,69,29.55,25.0,WNW,9.2,-,N/A,,Mostly Cloudy,290,2012-03-18 14:00:00
9:00 AM,26.6,17.6,69,29.58,30.0,West,6.9,-,N/A,,Mostly Cloudy,280,2012-03-18 15:00:00
10:00 AM,32.0,17.6,55,29.58,30.0,North,5.8,-,N/A,,Mostly Cloudy,360,2012-03-18 16:00:00
11:00 AM,35.6,19.4,52,29.58,30.0,WNW,8.1,-,N/A,,Mostly Cloudy,300,2012-03-18 17:00:00
12:00 PM,26,12,42,29.58,28,WNW,15.0,,,,Overcast,300,2012-03-18 18:00:00
12:00 PM,37.4,12.2,36,29.58,30.0,NW,13.8,-,N/A,,Overcast,320,2012-03-18 18:00:00
1:00 PM,41.0,12.2,31,29.60,30.0,NNW,9.2,-,N/A,,Overcast,340,2012-03-18 19:00:00
2:00 PM,41.0,12.2,31,29.59,30.0,NE,10.4,-,N/A,,Mostly Cloudy,40,2012-03-18 20:00:00
3:00 PM,41.0,15.8,36,29.58,30.0,NNE,9.2,-,N/A,,Overcast,20,2012-03-18 21:00:00
4:00 PM,39.2,15.8,39,29.57,30.0,NE,12.7,-,N/A,,Overcast,40,2012-03-18 22:00:00
5:00 PM,37.4,10.4,33,29.60,30.0,NE,12.7,-,N/A,,Overcast,40,2012-03-18 23:00:00
6:00 PM,36,29,67,29.62,28,NE,15.0,,,,Overcast,50,2012-03-19 00:00:00
7:00 PM,33.8,19.4,56,29.66,20.0,NE,8.1,-,N/A,,Overcast,50,2012-03-19 01:00:00
8:00 PM,32.0,23.0,69,29.68,15.0,ENE,8.1,-,N/A,,Overcast,60,2012-03-19 02:00:00
9:00 PM,32.0,24.8,75,29.71,15.0,NE,4.6,-,N/A,,Mostly Cloudy,50,2012-03-19 03:00:00
9:27 PM,-9999,-9999,N/A,-9999,15.0,East,5.8,-,N/A,,Unknown,90,2012-03-19 03:27:00
10:00 PM,30.2,24.8,80,29.58,15.0,SE,6.9,-,N/A,Snow,Light Snow Showers,130,2012-03-19 04:00:00